| time (UTC) | temp C | wind direction | speed KPH | gust KPH | rain 1hr cm | rain 24hr cm | rain mn cm | humidity % | barometer mb |
| 20260506154542 | 20 | 333 | 9.7 | 27.4 | 0.05 | 0.05 | 0.05 | 94 | 1012.1 |
| 20260506153033 | 22 | 333 | 3.2 | 6.4 | 0.00 | 0.00 | 0.00 | 96 | 1011.8 |
| 20260506151537 | 22 | 153 | 0.0 | 4.8 | 0.00 | 0.00 | 0.00 | 96 | 1011.6 |
| 20260506150045 | 22 | 0 | 0.0 | 8.0 | 0.00 | 0.00 | 0.00 | 96 | 1011.5 |
| 20260506144548 | 22 | 153 | 0.0 | 4.8 | 0.00 | 0.00 | 0.00 | 97 | 1011.5 |
| 20260506143036 | 22 | 0 | 0.0 | 8.0 | 0.00 | 0.00 | 0.00 | 97 | 1011.5 |
| 20260506141535 | 22 | 25 | 0.0 | 6.4 | 0.00 | 0.00 | 0.00 | 97 | 1011.3 |
| 20260506140043 | 22 | 0 | 0.0 | 3.2 | 0.00 | 0.00 | 0.00 | 97 | 1011.2 |
| 20260506134537 | 21 | 161 | 0.0 | 6.4 | 0.00 | 0.00 | 0.00 | 97 | 1010.6 |
| 20260506133044 | 21 | 155 | 3.2 | 14.5 | 0.00 | 0.00 | 0.00 | 97 | 1009.8 |
| 20260506131542 | 21 | 165 | 1.6 | 8.0 | 0.00 | 0.00 | 0.00 | 97 | 1009.6 |
| 20260506130037 | 21 | 175 | 3.2 | 9.7 | 0.00 | 0.00 | 0.00 | 97 | 1009.7 |
| 20260506124537 | 21 | 129 | 4.8 | 11.3 | 0.00 | 0.00 | 0.00 | 97 | 1009.5 |
| 20260506123034 | 21 | 136 | 4.8 | 8.0 | 0.00 | 0.00 | 0.00 | 97 | 1009.3 |
| 20260506121536 | 21 | 157 | 3.2 | 11.3 | 0.00 | 0.00 | 0.00 | 97 | 1009.1 |
| 20260506120042 | 21 | 157 | 3.2 | 8.0 | 0.00 | 0.00 | 0.00 | 96 | 1009.2 |
| 20260506114534 | 21 | 182 | 4.8 | 11.3 | 0.00 | 0.00 | 0.00 | 97 | 1009.0 |
| 20260506113046 | 21 | 148 | 3.2 | 9.7 | 0.00 | 0.00 | 0.00 | 97 | 1009.3 |
| 20260506111535 | 21 | 151 | 3.2 | 11.3 | 0.00 | 0.00 | 0.00 | 96 | 1009.4 |
| 20260506110036 | 22 | 145 | 1.6 | 14.5 | 0.00 | 0.00 | 0.00 | 96 | 1009.4 |
| 20260506104537 | 22 | 161 | 6.4 | 16.1 | 0.00 | 0.00 | 0.00 | 96 | 1009.2 |
| 20260506103036 | 22 | 142 | 4.8 | 12.9 | 0.00 | 0.00 | 0.00 | 96 | 1009.4 |
| 20260506101544 | 22 | 148 | 6.4 | 17.7 | 0.00 | 0.00 | 0.00 | 96 | 1009.3 |
| 20260506100037 | 22 | 155 | 8.0 | 25.7 | 0.00 | 0.00 | 0.00 | 96 | 1009.2 |
| 20260506094537 | 22 | 161 | 8.0 | 19.3 | 0.00 | 0.00 | 0.00 | 96 | 1009.2 |
| 20260506093034 | 22 | 150 | 6.4 | 16.1 | 0.00 | 0.00 | 0.00 | 96 | 1009.1 |
| 20260506091534 | 22 | 136 | 6.4 | 20.9 | 0.00 | 0.00 | 0.00 | 96 | 1009.0 |
| 20260506090035 | 22 | 161 | 8.0 | 19.3 | 0.00 | 0.00 | 0.00 | 96 | 1008.9 |
| 20260506084540 | 22 | 158 | 8.0 | 14.5 | 0.00 | 0.00 | 0.00 | 95 | 1008.6 |
| 20260506083039 | 22 | 148 | 8.0 | 19.3 | 0.00 | 0.00 | 0.00 | 95 | 1008.7 |
| 20260506081537 | 22 | 148 | 6.4 | 17.7 | 0.00 | 0.00 | 0.00 | 95 | 1008.5 |
| 20260506073035 | 22 | 169 | 11.3 | 27.4 | 0.00 | 0.00 | 0.00 | 93 | 1008.8 |
| 20260506071541 | 22 | 146 | 8.0 | 16.1 | 0.00 | 0.00 | 0.00 | 93 | 1009.1 |
| 20260506061534 | 23 | 134 | 6.4 | 17.7 | 0.00 | 0.00 | 0.00 | 92 | 1009.5 |
| 20260506044536 | 21 | 0 | 0.0 | 0.0 | 0.00 | 0.00 | 0.00 | 95 | 1009.3 |
| 20260506043036 | 20 | 264 | 0.0 | 4.8 | 0.00 | 0.00 | 0.00 | 94 | 1009.3 |
| 20260506041535 | 20 | 0 | 0.0 | 0.0 | 0.00 | 0.00 | 0.00 | 93 | 1009.1 |
| 20260506040040 | 20 | 0 | 0.0 | 0.0 | 0.00 | 0.00 | 0.00 | 93 | 1009.0 |
| 20260506034535 | 20 | 0 | 0.0 | 0.0 | 0.00 | 0.00 | 0.00 | 92 | 1008.9 |
| 20260506033040 | 21 | 0 | 0.0 | 0.0 | 0.00 | 0.00 | 0.00 | 91 | 1008.8 |
| 20260506031535 | 21 | 0 | 0.0 | 0.0 | 0.00 | 0.00 | 0.00 | 91 | 1008.7 |
| 20260506030033 | 22 | 0 | 0.0 | 0.0 | 0.00 | 0.00 | 0.00 | 91 | 1008.6 |
| 20260506024535 | 21 | 0 | 0.0 | 4.8 | 0.00 | 0.00 | 0.00 | 91 | 1008.3 |
| 20260506023048 | 21 | 0 | 0.0 | 0.0 | 0.00 | 0.00 | 0.00 | 90 | 1008.2 |
| 20260506021536 | 22 | 0 | 0.0 | 0.0 | 0.00 | 0.00 | 0.00 | 89 | 1007.9 |
| 20260506020034 | 23 | 0 | 0.0 | 0.0 | 0.00 | 0.00 | 0.00 | 87 | 1007.6 |
| 20260506014544 | 24 | 0 | 0.0 | 0.0 | 0.00 | 0.00 | 0.00 | 84 | 1007.5 |
| 20260506013037 | 25 | 0 | 0.0 | 3.2 | 0.00 | 0.00 | 0.00 | 81 | 1007.3 |
| 20260506011533 | 25 | 0 | 0.0 | 4.8 | 0.00 | 0.00 | 0.00 | 78 | 1007.0 |
| 20260506010048 | 26 | 175 | 1.6 | 6.4 | 0.00 | 0.00 | 0.00 | 77 | 1006.8 |
| 20260506004537 | 26 | 141 | 4.8 | 9.7 | 0.00 | 0.00 | 0.00 | 75 | 1006.9 |
| 20260506003033 | 27 | 162 | 4.8 | 14.5 | 0.00 | 0.00 | 0.00 | 73 | 1007.2 |
| 20260506001539 | 27 | 155 | 3.2 | 11.3 | 0.00 | 0.00 | 0.00 | 74 | 1007.0 |
| 20260506000033 | 27 | 161 | 6.4 | 14.5 | 0.00 | 0.00 | 0.00 | 72 | 1007.0 |
| 20260505234555 | 28 | 130 | 6.4 | 14.5 | 0.00 | 0.00 | 0.00 | 69 | 1007.0 |
| 20260505233040 | 28 | 171 | 6.4 | 12.9 | 0.00 | 0.00 | 0.00 | 69 | 1006.9 |
| 20260505231535 | 28 | 151 | 6.4 | 14.5 | 0.00 | 0.00 | 0.00 | 68 | 1006.8 |
| 20260505230032 | 28 | 169 | 4.8 | 14.5 | 0.00 | 0.00 | 0.00 | 66 | 1006.8 |
| 20260505224535 | 28 | 199 | 4.8 | 16.1 | 0.00 | 0.00 | 0.00 | 66 | 1007.0 |
| 20260505223035 | 28 | 217 | 4.8 | 16.1 | 0.00 | 0.00 | 0.00 | 67 | 1006.9 |
| 20260505221535 | 28 | 186 | 4.8 | 17.7 | 0.00 | 0.00 | 0.00 | 68 | 1007.0 |
| 20260505220040 | 28 | 171 | 6.4 | 17.7 | 0.00 | 0.00 | 0.00 | 67 | 1007.0 |
| 20260505214558 | 28 | 197 | 9.7 | 17.7 | 0.00 | 0.00 | 0.00 | 68 | 1007.1 |
| 20260505213036 | 28 | 131 | 6.4 | 20.9 | 0.00 | 0.00 | 0.00 | 68 | 1007.3 |
| 20260505211532 | 28 | 154 | 11.3 | 19.3 | 0.00 | 0.00 | 0.00 | 68 | 1007.2 |
| 20260505210031 | 28 | 105 | 8.0 | 19.3 | 0.00 | 0.00 | 0.00 | 68 | 1007.3 |
| 20260505204537 | 28 | 142 | 11.3 | 25.7 | 0.00 | 0.00 | 0.00 | 69 | 1007.6 |
| 20260505203043 | 28 | 130 | 12.9 | 27.4 | 0.00 | 0.00 | 0.00 | 68 | 1007.8 |
| 20260505201538 | 28 | 175 | 11.3 | 19.3 | 0.00 | 0.00 | 0.00 | 71 | 1007.8 |
| 20260505200052 | 27 | 150 | 6.4 | 19.3 | 0.00 | 0.00 | 0.00 | 71 | 1008.1 |
| 20260505194546 | 27 | 215 | 8.0 | 19.3 | 0.00 | 0.00 | 0.00 | 73 | 1008.1 |
| 20260505193042 | 27 | 148 | 11.3 | 19.3 | 0.00 | 0.00 | 0.00 | 72 | 1008.2 |
| 20260505191540 | 26 | 153 | 9.7 | 16.1 | 0.00 | 0.00 | 0.00 | 74 | 1008.6 |
| 20260505190038 | 26 | 115 | 9.7 | 17.7 | 0.00 | 0.00 | 0.00 | 74 | 1008.9 |
| 20260505184535 | 26 | 125 | 8.0 | 19.3 | 0.00 | 0.00 | 0.00 | 77 | 1009.1 |
| 20260505183039 | 25 | 188 | 8.0 | 17.7 | 0.00 | 0.00 | 0.00 | 77 | 1009.4 |
| 20260505181540 | 25 | 132 | 6.4 | 16.1 | 0.00 | 0.00 | 0.00 | 78 | 1009.6 |
| 20260505180059 | 24 | 180 | 8.0 | 16.1 | 0.00 | 0.00 | 0.00 | 79 | 1009.5 |
| 20260505174555 | 23 | 166 | 6.4 | 14.5 | 0.00 | 0.00 | 0.00 | 82 | 1009.7 |
| 20260505173042 | 23 | 192 | 6.4 | 19.3 | 0.00 | 0.00 | 0.00 | 83 | 1009.9 |
| 20260505171532 | 22 | 192 | 8.0 | 14.5 | 0.00 | 0.00 | 0.00 | 85 | 1010.2 |
| 20260505170034 | 22 | 157 | 8.0 | 14.5 | 0.00 | 0.00 | 0.00 | 87 | 1009.9 |
| 20260505164534 | 22 | 164 | 9.7 | 16.1 | 0.00 | 0.00 | 0.00 | 88 | 1009.8 |
| 20260505163035 | 22 | 199 | 4.8 | 14.5 | 0.00 | 0.00 | 0.00 | 89 | 1009.7 |
| 20260505161537 | 21 | 205 | 6.4 | 17.7 | 0.00 | 0.00 | 0.00 | 91 | 1009.7 |